Tracking 19176 objects as of 27-May-2018
HD Live streaming from Space Station
objects crossing your sky now

COSMOS 643

Track COSMOS 643 now!
10-day predictions
COSMOS 643 is classified as:


NORAD ID: 7267
Int'l Code: 1974-024C
Perigee: 1,358.9 km
Apogee: 1,488.6 km
Inclination: 74.0 °
Period: 114.1 minutes
Semi major axis: 7794 km
RCS: 0.6885 m2 (medium)
Launch date: April 23, 1974
Source: Commonwealth of Independent States (former USSR) (CIS)
Launch site: PLESETSK MISSILE AND SPACE COMPLEX (PKMTR)
aabbcc
Your satellite tracking list
Your tracking list is empty




NASA's NSSDC Master Catalog

Two Line Element Set (TLE):
1 07267U 74024C   18147.21540222  .00000003  00000-0  11098-3 0  9993
2 07267  74.0150 155.8430 0083216 241.0820 191.8406 12.61539928 30743
Source of the keplerian elements: AFSPC